Weather History for Appleton, WI

Change the Weather History Date:

Wednesday, February 6, 2013

  Actual Average Record
Temperature  
Mean Temperature 22 °F -  
Max Temperature 42 °F 24 °F 42 °F (2013)
Min Temperature 3 °F 7 °F -15 °F (1982)
Degree Days  
Heating Degree Days 42    
Moisture  
Dew Point 14 °F    
Average Humidity 86    
Maximum Humidity 100    
Minimum Humidity 34    
Precipitation  
Precipitation 0.01 in - - ()
Sea Level Pressure  
Sea Level Pressure 30.11 in    
Wind  
Wind Speed 5 mph (SSE)    
Max Wind Speed 9 mph    
Max Gust Speed -    
Visibility 7 miles    
Events Snow    
Averages and records for this station are not official NWS values.
T = Trace of Precipitation, MM = Missing Value Source: NWS Daily Summary

Daily Weather History Graph

Daily Weather History Graph

Search for Another Location

Airport:

Trip Planner

Search our weather history database for the weather conditions in past years. The results will help you decide how hot, cold, wet, or windy it might be!

Date:

Astronomy

Feb. 06, 2013 Rise Set
Actual Time 7:05 AM CST 5:11 PM CST
Civil Twilight 6:35 AM CST 5:41 PM CST
Nautical Twilight 6:00 AM CST 6:16 PM CST
Astronomical Twilight 5:27 AM CST 6:49 PM CST
Moon 3:53 AM CST (2/6) 1:25 PM CST (2/6)
Length of Visible Light 11h 06m
Length of Day
10h 05m
Waning Crescent, 17% of the Moon is Illuminated
Feb 6
Waning Crescent
Feb 10
New
Feb 17
First Quarter
Feb 25
Full
Mar 4
Last Quarter

Hourly Weather History & Observations

Time (CST) Temp. Windchill Dew Point Humidity Pressure Visibility Wind Dir Wind Speed Gust Speed Precip Events Conditions
12:15 AM 14.0 °F 5.1 °F 10.4 °F 86% 30.07 in 10.0 mi WNW 5.8 mph - N/A   Clear
12:35 AM 12.2 °F 2.9 °F 8.6 °F 85% 30.07 in 10.0 mi WNW 5.8 mph - N/A   Clear
12:55 AM 12.2 °F 1.7 °F 8.6 °F 85% 30.07 in 10.0 mi NW 6.9 mph - N/A   Clear
1:15 AM 10.4 °F -1.5 °F 6.8 °F 85% 30.07 in 10.0 mi NW 8.1 mph - N/A   Clear
1:35 AM 12.2 °F 0.7 °F 5.0 °F 73% 30.08 in 10.0 mi NW 8.1 mph - N/A   Clear
1:55 AM 10.4 °F -1.5 °F 6.8 °F 85% 30.09 in 10.0 mi WNW 8.1 mph - N/A   Clear
2:15 AM 8.6 °F -2.6 °F 5.0 °F 85% 30.10 in 10.0 mi WNW 6.9 mph - N/A   Clear
2:35 AM 8.6 °F -3.7 °F 5.0 °F 85% 30.10 in 10.0 mi West 8.1 mph - N/A   Clear
2:55 AM 8.6 °F -3.7 °F 5.0 °F 85% 30.10 in 10.0 mi West 8.1 mph - N/A   Clear
3:15 AM 6.8 °F -3.5 °F 3.2 °F 85% 30.09 in 10.0 mi West 5.8 mph - N/A   Clear
3:35 AM 3.2 °F -7.8 °F 1.4 °F 92% 30.10 in 10.0 mi West 5.8 mph - N/A   Clear
3:55 AM 6.8 °F -5.9 °F 5.0 °F 92% 30.11 in 10.0 mi West 8.1 mph - N/A   Clear
4:15 AM 8.6 °F -1.3 °F 6.8 °F 92% 30.11 in 10.0 mi West 5.8 mph - N/A   Clear
5:20 AM 5.0 °F - 3.2 °F 92% 30.12 in 10.0 mi Calm Calm - N/A   Clear
6:45 AM 3.2 °F - 1.4 °F 92% 30.13 in 7.0 mi Calm Calm - N/A   Partly Cloudy
7:45 AM 5.0 °F - 3.2 °F 92% 30.15 in 7.0 mi Calm Calm - N/A   Scattered Clouds
8:45 AM 8.6 °F - 5.0 °F 85% 30.17 in 7.0 mi Calm Calm - N/A   Scattered Clouds
9:45 AM 10.4 °F - 8.6 °F 92% 30.20 in 7.0 mi Calm Calm - N/A   Scattered Clouds
10:45 AM 15.8 °F - 12.2 °F 86% 30.20 in 10.0 mi Calm Calm - N/A   Scattered Clouds
11:45 AM 21.2 °F 14.9 °F 10.4 °F 63% 30.18 in 10.0 mi Variable 4.6 mph - N/A   Scattered Clouds
12:45 PM 21.2 °F 14.9 °F 10.4 °F 63% 30.17 in 10.0 mi South 4.6 mph - N/A   Mostly Cloudy
1:45 PM 23.0 °F - 12.2 °F 63% 30.16 in 10.0 mi Calm Calm - N/A   Overcast
2:15 PM 23.0 °F 17.0 °F 12.2 °F 63% 30.15 in 10.0 mi South 4.6 mph - N/A   Mostly Cloudy
2:45 PM 23.0 °F 17.0 °F 12.2 °F 63% 30.14 in 10.0 mi Variable 4.6 mph - N/A   Overcast
3:25 PM 42.8 °F 39.3 °F 15.8 °F 34% 30.14 in 1.5 mi SSE 5.8 mph - N/A   Unknown
3:45 PM 21.2 °F 13.6 °F 15.8 °F 80% 30.14 in 1.0 mi SSE 5.8 mph - N/A Snow Light Snow
5:17 PM 21.2 °F 13.6 °F 19.4 °F 93% 30.12 in 1.0 mi SE 5.8 mph - N/A Snow Light Snow
5:45 PM 21.2 °F 13.6 °F 21.2 °F 100% 30.12 in 3.0 mi Variable 5.8 mph - N/A Snow Light Snow
6:45 PM 23.0 °F 14.7 °F 21.2 °F 93% 30.12 in 3.0 mi East 6.9 mph - N/A Snow Light Snow
7:45 PM 23.0 °F 13.1 °F 21.2 °F 93% 30.10 in 7.0 mi ESE 9.2 mph - N/A   Overcast
8:45 PM 24.8 °F 15.3 °F 23.0 °F 93% 30.08 in 4.0 mi ESE 9.2 mph - N/A Snow Light Snow
9:45 PM 26.6 °F 21.2 °F 24.8 °F 93% 30.09 in 4.0 mi ESE 4.6 mph - N/A Snow Light Snow
9:55 PM 26.6 °F 20.0 °F 26.6 °F 100% 30.09 in 4.0 mi ESE 5.8 mph - N/A   Overcast
10:15 PM 28.4 °F 22.2 °F 26.6 °F 93% 30.09 in 3.0 mi ESE 5.8 mph - 0.01 in   Overcast
10:35 PM 26.6 °F 21.2 °F 26.6 °F 100% 30.08 in 3.0 mi East 4.6 mph - 0.01 in Snow Light Snow
10:45 PM 26.6 °F 21.2 °F 26.6 °F 100% 30.08 in 3.0 mi East 4.6 mph - N/A Snow Light Snow
10:55 PM 26.6 °F 22.6 °F 26.6 °F 100% 30.08 in 3.0 mi East 3.5 mph - 0.01 in Snow Light Snow
11:15 PM 26.6 °F 21.2 °F 26.6 °F 100% 30.07 in 2.5 mi East 4.6 mph - N/A   Overcast
11:35 PM 28.4 °F 24.6 °F 28.4 °F 100% 30.08 in 3.0 mi East 3.5 mph - N/A   Light Freezing Rain
11:55 PM 28.4 °F 24.6 °F 28.4 °F 100% 30.08 in 2.0 mi East 3.5 mph - N/A   Overcast